Flag for U.S.A. Weather past 2 weeks in Memphis, Tennessee, U.S.A.

Now
93 °F

Passing clouds.


Feels Like: 103 °F
Forecast: 79 / 97 °F
Wind: 7 mph from Southwest

Location: Memphis International Airport

Current Time: Jul 28, 2015 at 8:03:25 PM

Latest Report: Jul 28, 2015 at 6:54 PM


Visibility: 10 mi

Pressure: 29.92 "Hg

Humidity: 54%

Dew point: 74 °F

Location of MemphisLocation

Historic Weather in Memphis — Graph

°F

Memphis temperature yesterday

Maximum temperature yesterday: 96 °F (at 12:54 PM)
Minimum temperature yesterday: 79 °F (at 3:54 AM)
Average temperature yesterday: 88 °F

Past Weeks' High & Low Weather Summary

 TemperatureHumidityPressure
High98 °F (Jul 20, 2:54 PM)91% (Jul 22, 6:54 AM)30.03 "Hg (Jul 22, 6:54 AM)
Low75 °F (Jul 14, 5:54 PM)41% (Jul 26, 4:54 PM)29.77 "Hg (Jul 14, 3:54 AM)
Average86 °F68%29.92 "Hg
* Reported Jul 13 6:54 PM — Jul 28 6:54 PM, Memphis, Weather by CustomWeather, © 2015

Note: Actual official high and low records may vary slightly from our data, if they occured in-between our weather recording intervals... More about our weather records

Advertising

Memphis weather history for previous 24 hours

 ConditionsComfort  
Time TempWeatherWind HumidityBarometerVisibility
6:54 PM
Tue, Jul 28
93 °FPassing clouds.7 mph54%29.92 "Hg10 mi
5:54 PM95 °FPassing clouds.8 mph52%29.93 "Hg10 mi
4:54 PM95 °FPassing clouds.8 mph51%29.94 "Hg10 mi
3:54 PM96 °FPassing clouds.5 mph49%29.96 "Hg10 mi
2:54 PM96 °FScattered clouds.3 mph47%29.97 "Hg10 mi
1:54 PM96 °FScattered clouds.5 mph49%29.98 "Hg10 mi
12:54 PM95 °FScattered clouds.10 mph54%29.99 "Hg10 mi
11:54 AM94 °FScattered clouds.6 mph54%29.99 "Hg10 mi
10:54 AM93 °FPassing clouds.8 mph54%29.99 "Hg10 mi
9:54 AM91 °FPassing clouds.5 mph57%30.00 "Hg10 mi
8:54 AM88 °FScattered clouds.6 mph65%29.99 "Hg10 mi
7:54 AM84 °FScattered clouds.6 mph77%29.98 "Hg10 mi
6:54 AM82 °FPassing clouds.No wind79%29.96 "Hg10 mi
5:54 AM81 °FPassing clouds.No wind82%29.95 "Hg10 mi
4:54 AM82 °FClear.6 mph79%29.92 "Hg10 mi
3:54 AM81 °FClear.7 mph82%29.93 "Hg10 mi
2:54 AM81 °FClear.3 mph82%29.93 "Hg10 mi
1:54 AM83 °FClear.No wind77%29.93 "Hg10 mi
12:54 AM84 °FPassing clouds.3 mph74%29.94 "Hg10 mi
11:54 PM
Mon, Jul 27
85 °FPassing clouds.5 mph72%29.95 "Hg10 mi
10:54 PM85 °FPassing clouds.5 mph75%29.95 "Hg10 mi
9:54 PM88 °FPassing clouds.No wind67%29.94 "Hg10 mi
8:54 PM88 °FPassing clouds.No wind65%29.92 "Hg10 mi
Weather by CustomWeather, © 2015

See weather overviewHow to use our weather pages